GMA9AE EGCC-LOWI

Flight info

Callsign GMA9AE
Flight time 1h 53m
Altitude 23000
Route LISTO L612 HON/N0459F390 L15 BIG UL9 KONAN DCT KOK DCT SISGA DCT RITAX DCT EDISA DCT PICWI DCT UTABA M738 BATUB/N0458F310 M738 MADEB MADEB1B
Aircraft B738/M-SDE2E3FGHIRWXY/LB1

Departure

Time 2026-05-05 22:09
Airport Manchester Airport (EGCC)

Arrival

Time 2026-05-06 00:02
Airport Innsbruck Airport (LOWI)
Time Latitude Longitude Altitude Speed Heading
2026-05-05 21:49 53.35927 -2.27996 246 ft 0 kts 258°
2026-05-05 22:01 53.35927 -2.27995 246 ft 0 kts 258°
2026-05-05 22:01 53.35927 -2.27994 246 ft 0 kts 258°
2026-05-05 22:02 53.35927 -2.27995 246 ft 0 kts 258°
2026-05-05 22:02 53.35927 -2.27994 246 ft 0 kts 258°
2026-05-05 22:03 53.35928 -2.27991 246 ft 2 kts 258°
2026-05-05 22:03 53.35931 -2.27965 246 ft 2 kts 259°
2026-05-05 22:03 53.35934 -2.27940 246 ft 2 kts 255°
2026-05-05 22:03 53.35941 -2.27915 246 ft 2 kts 212°
2026-05-05 22:04 53.35950 -2.27910 246 ft 1 kts 169°
2026-05-05 22:04 53.35953 -2.27910 246 ft 0 kts 168°
2026-05-05 22:04 53.35952 -2.27910 246 ft 0 kts 168°
2026-05-05 22:04 53.35951 -2.27910 246 ft 0 kts 168°
2026-05-05 22:05 53.35946 -2.27907 246 ft 0 kts 164°
2026-05-05 22:05 53.35945 -2.27907 246 ft 2 kts 164°
2026-05-05 22:05 53.35876 -2.27874 246 ft 14 kts 166°
2026-05-05 22:06 53.35779 -2.27869 246 ft 14 kts 185°
2026-05-05 22:06 53.35683 -2.27885 246 ft 14 kts 186°
2026-05-05 22:06 53.35590 -2.27975 242 ft 20 kts 230°
2026-05-05 22:06 53.35472 -2.28134 238 ft 23 kts 200°
2026-05-05 22:07 53.35321 -2.28198 239 ft 23 kts 200°
2026-05-05 22:07 53.35199 -2.28366 232 ft 24 kts 231°
2026-05-05 22:07 53.35102 -2.28569 231 ft 22 kts 231°
2026-05-05 22:07 53.35009 -2.28751 229 ft 21 kts 226°
2026-05-05 22:08 53.34909 -2.28926 225 ft 22 kts 227°
2026-05-05 22:08 53.34779 -2.29070 218 ft 22 kts 183°
2026-05-05 22:08 53.34678 -2.28999 222 ft 10 kts 126°
2026-05-05 22:08 53.34681 -2.28925 221 ft 5 kts 56°
2026-05-05 22:09 53.34735 -2.28816 222 ft 36 kts 51°
2026-05-05 22:09 53.35080 -2.28105 237 ft 121 kts 51°
2026-05-05 22:09 53.35718 -2.26697 359 ft 183 kts 54°
2026-05-05 22:09 53.36479 -2.24908 1355 ft 186 kts 56°
2026-05-05 22:10 53.37311 -2.23379 2584 ft 167 kts 47°
2026-05-05 22:10 53.37817 -2.21722 3291 ft 177 kts 83°
2026-05-05 22:10 53.37356 -2.19722 3653 ft 199 kts 130°
2026-05-05 22:10 53.36244 -2.18215 4082 ft 212 kts 144°
2026-05-05 22:11 53.34958 -2.16972 4582 ft 218 kts 158°
2026-05-05 22:11 53.33446 -2.16784 5111 ft 219 kts 188°
2026-05-05 22:11 53.31922 -2.17081 5634 ft 222 kts 187°
2026-05-05 22:11 53.30379 -2.17345 6172 ft 224 kts 187°
2026-05-05 22:12 53.28822 -2.17600 6688 ft 226 kts 187°
2026-05-05 22:12 53.27241 -2.17859 7177 ft 229 kts 188°
2026-05-05 22:12 53.25655 -2.18115 7686 ft 230 kts 187°
2026-05-05 22:12 53.24052 -2.18370 8189 ft 232 kts 188°
2026-05-05 22:13 53.22438 -2.18626 8701 ft 233 kts 187°
2026-05-05 22:13 53.20813 -2.18883 9235 ft 234 kts 187°
2026-05-05 22:13 53.19193 -2.19138 9767 ft 234 kts 187°
2026-05-05 22:13 53.17563 -2.19392 10258 ft 234 kts 187°
2026-05-05 22:14 53.15947 -2.19643 10752 ft 234 kts 187°
2026-05-05 22:14 53.14326 -2.19796 11230 ft 235 kts 175°
2026-05-05 22:14 53.12795 -2.18970 11744 ft 233 kts 158°
2026-05-05 22:14 53.11310 -2.17918 12252 ft 232 kts 158°
2026-05-05 22:15 53.09834 -2.16877 12749 ft 230 kts 159°
2026-05-05 22:15 53.08397 -2.15866 13261 ft 227 kts 159°
2026-05-05 22:15 53.06948 -2.14852 13785 ft 224 kts 159°
2026-05-05 22:15 53.05524 -2.13857 14257 ft 220 kts 159°
2026-05-05 22:16 53.04152 -2.12902 14721 ft 216 kts 160°
2026-05-05 22:16 53.02803 -2.11965 15186 ft 211 kts 160°
2026-05-05 22:16 53.01420 -2.11009 15399 ft 223 kts 160°
2026-05-05 22:16 52.99948 -2.09994 15531 ft 236 kts 160°
2026-05-05 22:17 52.98401 -2.08930 15648 ft 250 kts 159°
2026-05-05 22:17 52.96769 -2.07808 15765 ft 263 kts 159°
2026-05-05 22:17 52.95049 -2.06623 15934 ft 272 kts 159°
2026-05-05 22:17 52.93300 -2.05419 16277 ft 274 kts 159°
2026-05-05 22:18 52.91536 -2.04205 16671 ft 275 kts 159°
2026-05-05 22:18 52.89755 -2.02982 16935 ft 281 kts 159°
2026-05-05 22:18 52.87971 -2.01759 17297 ft 285 kts 160°
2026-05-05 22:18 52.86120 -2.00491 17651 ft 291 kts 160°
2026-05-05 22:19 52.84217 -1.99190 17990 ft 301 kts 160°
2026-05-05 22:19 52.82241 -1.97841 18381 ft 312 kts 160°
2026-05-05 22:19 52.80222 -1.96464 18739 ft 323 kts 160°
2026-05-05 22:19 52.78122 -1.95033 19092 ft 333 kts 160°
2026-05-05 22:20 52.75969 -1.93566 19453 ft 340 kts 160°
2026-05-05 22:20 52.73779 -1.92074 19772 ft 340 kts 160°
2026-05-05 22:20 52.71641 -1.90619 20189 ft 345 kts 160°
2026-05-05 22:20 52.69416 -1.89106 20713 ft 350 kts 160°
2026-05-05 22:21 52.67158 -1.87573 21230 ft 354 kts 160°
2026-05-05 22:21 52.64953 -1.86079 21729 ft 357 kts 160°
2026-05-05 22:21 52.62635 -1.84509 22267 ft 361 kts 160°
2026-05-05 22:21 52.60298 -1.82929 22813 ft 363 kts 160°
2026-05-05 22:22 52.58001 -1.81377 23351 ft 366 kts 160°
2026-05-05 22:22 52.55639 -1.79783 23860 ft 368 kts 160°
2026-05-05 22:22 52.53265 -1.78183 24330 ft 370 kts 160°
2026-05-05 22:22 52.50837 -1.76550 24435 ft 383 kts 160°
2026-05-05 22:23 52.48317 -1.74859 24463 ft 398 kts 160°
2026-05-05 22:23 52.45766 -1.73147 24471 ft 411 kts 160°
2026-05-05 22:23 52.43104 -1.71358 24666 ft 412 kts 160°
2026-05-05 22:23 52.40447 -1.69576 25037 ft 415 kts 160°
2026-05-05 22:24 52.37761 -1.67779 25399 ft 418 kts 160°
2026-05-05 22:24 52.35179 -1.65563 25738 ft 425 kts 144°
2026-05-05 22:24 52.33070 -1.62150 26165 ft 428 kts 134°
2026-05-05 22:24 52.31040 -1.58554 26538 ft 430 kts 135°
2026-05-05 22:25 52.29017 -1.55023 26924 ft 432 kts 135°
2026-05-05 22:25 52.26945 -1.51449 27299 ft 433 kts 136°
2026-05-05 22:25 52.24862 -1.47885 27693 ft 434 kts 136°
2026-05-05 22:25 52.22785 -1.44349 28091 ft 435 kts 136°
2026-05-05 22:26 52.20725 -1.40850 28727 ft 429 kts 137°
2026-05-05 22:26 52.18697 -1.37405 29565 ft 419 kts 137°
2026-05-05 22:26 52.16694 -1.34010 30357 ft 410 kts 137°
2026-05-05 22:26 52.14743 -1.30706 31052 ft 401 kts 137°
2026-05-05 22:27 52.12797 -1.27421 31266 ft 406 kts 137°
2026-05-05 22:27 52.08794 -1.20681 31403 ft 422 kts 137°
2026-05-05 22:27 52.06750 -1.17238 31706 ft 421 kts 136°
2026-05-05 22:28 52.04726 -1.13832 32235 ft 417 kts 136°
2026-05-05 22:28 52.02724 -1.10473 32723 ft 412 kts 137°
2026-05-05 22:28 52.00722 -1.07188 33058 ft 413 kts 137°
2026-05-05 22:29 51.96595 -1.00426 33041 ft 429 kts 136°
2026-05-05 22:29 51.92375 -0.93350 33052 ft 442 kts 136°
2026-05-05 22:30 51.88066 -0.86138 33039 ft 455 kts 136°
2026-05-05 22:30 51.83608 -0.78718 33046 ft 464 kts 136°
2026-05-05 22:31 51.79093 -0.71234 33023 ft 467 kts 136°
2026-05-05 22:31 51.74569 -0.63783 33007 ft 461 kts 136°
2026-05-05 22:32 51.70098 -0.56447 33031 ft 461 kts 136°
2026-05-05 22:32 51.65594 -0.49075 33026 ft 462 kts 136°
2026-05-05 22:32 51.63355 -0.45418 32924 ft 463 kts 136°
2026-05-05 22:33 51.61094 -0.41728 33018 ft 460 kts 136°
2026-05-05 22:33 51.56602 -0.34415 33021 ft 459 kts 136°
2026-05-05 22:34 51.52100 -0.27108 33038 ft 459 kts 136°
2026-05-05 22:34 51.47626 -0.19868 33029 ft 460 kts 136°
2026-05-05 22:35 51.43118 -0.12594 33021 ft 460 kts 136°
2026-05-05 22:35 51.38655 -0.05410 33015 ft 461 kts 136°
2026-05-05 22:36 51.34272 0.01872 33010 ft 463 kts 127°
2026-05-05 22:36 51.32735 0.06407 33062 ft 465 kts 110°
2026-05-05 22:36 51.32170 0.09728 33062 ft 467 kts 103°
2026-05-05 22:37 51.31029 0.19954 33102 ft 467 kts 102°
2026-05-05 22:37 51.29807 0.30138 33126 ft 467 kts 103°
2026-05-05 22:38 51.28546 0.40323 33155 ft 467 kts 103°
2026-05-05 22:38 51.27317 0.50500 33142 ft 466 kts 103°
2026-05-05 22:39 51.26066 0.60660 33136 ft 465 kts 103°
2026-05-05 22:39 51.24735 0.70682 33104 ft 464 kts 104°
2026-05-05 22:40 51.23436 0.80791 33061 ft 464 kts 103°
2026-05-05 22:40 51.22176 0.90885 33031 ft 464 kts 103°
2026-05-05 22:41 51.20894 1.00973 32996 ft 463 kts 103°
2026-05-05 22:41 51.19585 1.11041 32992 ft 463 kts 104°
2026-05-05 22:42 51.18258 1.21105 32997 ft 463 kts 104°
2026-05-05 22:42 51.16930 1.31156 32991 ft 463 kts 104°
2026-05-05 22:43 51.15830 1.41215 32974 ft 465 kts 97°
2026-05-05 22:43 51.15411 1.51489 32980 ft 464 kts 96°
2026-05-05 22:44 51.15031 1.61725 32975 ft 463 kts 96°
2026-05-05 22:44 51.14552 1.71927 32973 ft 462 kts 97°
2026-05-05 22:45 51.14030 1.82113 32978 ft 462 kts 97°
2026-05-05 22:45 51.13500 1.92353 32971 ft 462 kts 97°
2026-05-05 22:46 51.12966 2.02554 32963 ft 462 kts 97°
2026-05-05 22:46 51.12423 2.12752 32967 ft 461 kts 97°
2026-05-05 22:47 51.11877 2.22857 32964 ft 461 kts 97°
2026-05-05 22:47 51.11319 2.33037 32951 ft 461 kts 97°
2026-05-05 22:48 51.10754 2.43194 32947 ft 461 kts 97°
2026-05-05 22:48 51.10181 2.53358 32944 ft 461 kts 97°
2026-05-05 22:49 51.09565 2.63539 32939 ft 460 kts 102°
2026-05-05 22:49 51.08620 2.68349 32932 ft 454 kts 120°
2026-05-05 22:49 51.07115 2.72740 32947 ft 453 kts 120°
2026-05-05 22:50 51.04114 2.81511 32938 ft 454 kts 120°
2026-05-05 22:50 51.01135 2.90374 32941 ft 454 kts 120°
2026-05-05 22:51 50.98179 2.99220 32929 ft 453 kts 120°
2026-05-05 22:51 50.95223 3.08052 32931 ft 452 kts 120°
2026-05-05 22:52 50.92264 3.16852 32920 ft 452 kts 120°
2026-05-05 22:52 50.89323 3.25566 32912 ft 452 kts 120°
2026-05-05 22:53 50.86343 3.34363 32918 ft 450 kts 120°
2026-05-05 22:53 50.83391 3.43051 32904 ft 448 kts 120°
2026-05-05 22:54 50.80437 3.51712 32916 ft 448 kts 120°
2026-05-05 22:54 50.77484 3.60341 32907 ft 448 kts 120°
2026-05-05 22:55 50.74506 3.69012 32911 ft 448 kts 120°
2026-05-05 22:55 50.71531 3.77647 32909 ft 448 kts 120°
2026-05-05 22:56 50.68548 3.86278 32896 ft 447 kts 120°
2026-05-05 22:56 50.65571 3.94864 32898 ft 446 kts 120°
2026-05-05 22:57 50.62588 4.03437 32900 ft 446 kts 120°
2026-05-05 22:57 50.59768 4.12082 32890 ft 446 kts 116°
2026-05-05 22:58 50.57174 4.20907 32901 ft 446 kts 116°
2026-05-05 22:58 50.54557 4.29820 32892 ft 446 kts 116°
2026-05-05 22:59 50.51934 4.38600 32891 ft 446 kts 116°
2026-05-05 22:59 50.49273 4.47412 32892 ft 446 kts 116°
2026-05-05 23:00 50.45265 4.60604 32891 ft 446 kts 116°
2026-05-05 23:00 50.42587 4.69383 32872 ft 446 kts 116°
2026-05-05 23:01 50.39902 4.78157 32875 ft 446 kts 116°
2026-05-05 23:01 50.37225 4.86869 32874 ft 446 kts 117°
2026-05-05 23:02 50.34524 4.95632 32872 ft 447 kts 117°
2026-05-05 23:02 50.31814 5.04390 32872 ft 447 kts 117°
2026-05-05 23:03 50.29143 5.12993 32857 ft 448 kts 116°
2026-05-05 23:03 50.26411 5.21762 32870 ft 449 kts 116°
2026-05-05 23:04 50.23665 5.30545 32872 ft 450 kts 116°
2026-05-05 23:04 50.20910 5.39325 32863 ft 451 kts 116°
2026-05-05 23:05 50.18160 5.48060 32854 ft 451 kts 116°
2026-05-05 23:05 50.15381 5.56854 32847 ft 452 kts 117°
2026-05-05 23:06 50.12602 5.65620 32858 ft 453 kts 117°
2026-05-05 23:06 50.09804 5.74420 32857 ft 453 kts 117°
2026-05-05 23:07 50.06938 5.83170 32844 ft 453 kts 120°
2026-05-05 23:07 50.03551 5.91457 32867 ft 453 kts 124°
2026-05-05 23:08 50.00020 5.99591 32848 ft 455 kts 124°
2026-05-05 23:08 49.96513 6.07786 32847 ft 455 kts 124°
2026-05-05 23:09 49.93059 6.15974 32847 ft 456 kts 123°
2026-05-05 23:09 49.89608 6.24176 32831 ft 456 kts 123°
2026-05-05 23:10 49.86137 6.32405 32835 ft 455 kts 123°
2026-05-05 23:10 49.82672 6.40590 32823 ft 455 kts 124°
2026-05-05 23:11 49.79192 6.48783 32829 ft 455 kts 124°
2026-05-05 23:11 49.75697 6.56983 32816 ft 456 kts 124°
2026-05-05 23:12 49.72188 6.65190 32822 ft 457 kts 124°
2026-05-05 23:12 49.68684 6.73361 32819 ft 458 kts 124°
2026-05-05 23:13 49.65222 6.81412 32817 ft 459 kts 124°
2026-05-05 23:13 49.61687 6.89603 32827 ft 459 kts 124°
2026-05-05 23:14 49.58138 6.97804 32822 ft 459 kts 125°
2026-05-05 23:14 49.54591 7.05975 32839 ft 460 kts 125°
2026-05-05 23:15 49.51024 7.14166 32840 ft 460 kts 125°
2026-05-05 23:15 49.47456 7.22335 32837 ft 460 kts 125°
2026-05-05 23:16 49.43878 7.30502 32845 ft 461 kts 125°
2026-05-05 23:16 49.40315 7.38609 32844 ft 461 kts 125°
2026-05-05 23:17 49.36724 7.46754 32852 ft 461 kts 125°
2026-05-05 23:17 49.33111 7.54927 32851 ft 461 kts 125°
2026-05-05 23:18 49.29500 7.63067 32839 ft 461 kts 126°
2026-05-05 23:18 49.25909 7.71140 32843 ft 462 kts 126°
2026-05-05 23:19 49.22284 7.79264 32857 ft 463 kts 126°
2026-05-05 23:19 49.18640 7.87406 32861 ft 463 kts 126°
2026-05-05 23:20 49.14994 7.95529 32860 ft 464 kts 126°
2026-05-05 23:20 49.11335 8.03656 32860 ft 464 kts 127°
2026-05-05 23:21 49.07677 8.11756 32861 ft 465 kts 127°
2026-05-05 23:21 49.04084 8.19692 32870 ft 465 kts 127°
2026-05-05 23:22 49.00405 8.27791 32871 ft 466 kts 127°
2026-05-05 23:22 48.96148 8.35110 32908 ft 459 kts 143°
2026-05-05 23:23 48.91366 8.41600 32885 ft 463 kts 136°
2026-05-05 23:23 48.87029 8.48743 32876 ft 464 kts 134°
2026-05-05 23:24 48.82682 8.55988 32866 ft 465 kts 135°
2026-05-05 23:24 48.79005 8.61969 32888 ft 464 kts 135°
2026-05-05 23:25 48.74556 8.69093 32873 ft 464 kts 136°
2026-05-05 23:25 48.70143 8.76115 32867 ft 464 kts 137°
2026-05-05 23:26 48.65698 8.83172 32881 ft 464 kts 137°
2026-05-05 23:26 48.61237 8.90239 32892 ft 465 kts 137°
2026-05-05 23:27 48.56765 8.97308 32890 ft 465 kts 137°
2026-05-05 23:27 48.54523 9.00844 32721 ft 468 kts 137°
2026-05-05 23:27 48.52252 9.04419 32133 ft 472 kts 137°
2026-05-05 23:28 48.50014 9.07941 31628 ft 465 kts 137°
2026-05-05 23:28 48.47810 9.11406 31095 ft 459 kts 137°
2026-05-05 23:28 48.45612 9.14857 30611 ft 457 kts 137°
2026-05-05 23:28 48.43399 9.18323 30125 ft 459 kts 136°
2026-05-05 23:29 48.41187 9.21781 29599 ft 461 kts 136°
2026-05-05 23:29 48.38956 9.25266 29033 ft 462 kts 136°
2026-05-05 23:29 48.36726 9.28745 28486 ft 463 kts 136°
2026-05-05 23:29 48.34517 9.32189 27960 ft 464 kts 136°
2026-05-05 23:30 48.32273 9.35683 27414 ft 464 kts 137°
2026-05-05 23:30 48.30026 9.39178 26901 ft 465 kts 137°
2026-05-05 23:30 48.27747 9.42715 26374 ft 465 kts 137°
2026-05-05 23:30 48.25349 9.45824 25835 ft 461 kts 151°
2026-05-05 23:31 48.22443 9.47754 25363 ft 454 kts 166°
2026-05-05 23:31 48.19379 9.49001 24885 ft 453 kts 168°
2026-05-05 23:31 48.16380 9.50210 24410 ft 454 kts 167°
2026-05-05 23:31 48.13324 9.51479 23934 ft 453 kts 167°
2026-05-05 23:32 48.10332 9.52756 23460 ft 448 kts 167°
2026-05-05 23:32 48.07415 9.54018 23008 ft 442 kts 166°
2026-05-05 23:32 48.04459 9.55297 22970 ft 442 kts 166°
2026-05-05 23:32 48.01537 9.56778 22893 ft 445 kts 157°
2026-05-05 23:33 47.98953 9.59348 22959 ft 448 kts 145°
2026-05-05 23:33 47.96465 9.62189 22807 ft 452 kts 146°
2026-05-05 23:33 47.93963 9.64966 22233 ft 451 kts 147°
2026-05-05 23:33 47.91450 9.67709 21697 ft 444 kts 147°
2026-05-05 23:34 47.88967 9.70394 21074 ft 439 kts 147°
2026-05-05 23:34 47.86461 9.73088 20272 ft 438 kts 147°
2026-05-05 23:34 47.83985 9.75742 19532 ft 438 kts 148°
2026-05-05 23:34 47.81535 9.78367 18817 ft 437 kts 147°
2026-05-05 23:35 47.79144 9.80928 18293 ft 432 kts 147°
2026-05-05 23:35 47.76736 9.83510 17995 ft 420 kts 147°
2026-05-05 23:35 47.74384 9.86030 17406 ft 416 kts 147°
2026-05-05 23:35 47.72031 9.88544 16697 ft 415 kts 147°
2026-05-05 23:36 47.69695 9.91037 16048 ft 413 kts 147°
2026-05-05 23:36 47.67363 9.93524 15450 ft 411 kts 147°
2026-05-05 23:36 47.65045 9.95993 14874 ft 408 kts 147°
2026-05-05 23:36 47.62771 9.98414 14313 ft 406 kts 147°
2026-05-05 23:37 47.60538 10.00789 13763 ft 404 kts 147°
2026-05-05 23:37 47.58276 10.03191 13187 ft 401 kts 147°
2026-05-05 23:37 47.56007 10.05599 13015 ft 401 kts 146°
2026-05-05 23:37 47.53738 10.08003 12932 ft 400 kts 146°
2026-05-05 23:38 47.51502 10.10372 12925 ft 396 kts 146°
2026-05-05 23:38 47.49255 10.12750 12925 ft 397 kts 146°
2026-05-05 23:38 47.47041 10.15089 12927 ft 397 kts 147°
2026-05-05 23:38 47.44793 10.17461 12918 ft 397 kts 147°
2026-05-05 23:39 47.42519 10.19771 12924 ft 396 kts 149°
2026-05-05 23:39 47.40192 10.21877 12929 ft 396 kts 151°
2026-05-05 23:39 47.37846 10.23962 12925 ft 395 kts 151°
2026-05-05 23:39 47.35506 10.26069 12909 ft 391 kts 150°
2026-05-05 23:40 47.33434 10.28547 12879 ft 380 kts 132°
2026-05-05 23:40 47.32080 10.31842 12445 ft 372 kts 114°
2026-05-05 23:40 47.31397 10.35438 12121 ft 361 kts 104°
2026-05-05 23:40 47.30926 10.39044 11714 ft 351 kts 102°
2026-05-05 23:41 47.30506 10.42482 11421 ft 339 kts 102°
2026-05-05 23:41 47.30089 10.45798 11417 ft 319 kts 103°
2026-05-05 23:41 47.29683 10.48895 11395 ft 301 kts 104°
2026-05-05 23:41 47.29290 10.51809 11394 ft 282 kts 104°
2026-05-05 23:42 47.28917 10.54535 11395 ft 265 kts 104°
2026-05-05 23:42 47.28562 10.57118 11388 ft 251 kts 104°
2026-05-05 23:42 47.28222 10.59591 11415 ft 251 kts 104°
2026-05-05 23:42 47.27853 10.62224 11354 ft 276 kts 104°
2026-05-05 23:43 47.27441 10.65113 11458 ft 300 kts 103°
2026-05-05 23:43 47.27365 10.68195 11439 ft 305 kts 85°
2026-05-05 23:43 47.27648 10.71299 11442 ft 307 kts 84°
2026-05-05 23:43 47.27928 10.74426 11427 ft 313 kts 85°
2026-05-05 23:44 47.28180 10.77622 11438 ft 314 kts 85°
2026-05-05 23:44 47.28403 10.80804 11423 ft 313 kts 86°
2026-05-05 23:44 47.28604 10.83982 11419 ft 311 kts 86°
2026-05-05 23:44 47.28789 10.87141 11447 ft 310 kts 87°
2026-05-05 23:45 47.28965 10.90298 11425 ft 308 kts 87°
2026-05-05 23:45 47.29133 10.93428 11422 ft 304 kts 87°
2026-05-05 23:45 47.29297 10.96535 11444 ft 306 kts 87°
2026-05-05 23:45 47.29457 10.99644 11456 ft 311 kts 87°
2026-05-05 23:46 47.29622 11.02861 11448 ft 311 kts 87°
2026-05-05 23:46 47.29780 11.05960 11433 ft 310 kts 87°
2026-05-05 23:46 47.29938 11.09097 11425 ft 308 kts 87°
2026-05-05 23:46 47.30094 11.12213 11433 ft 306 kts 87°
2026-05-05 23:47 47.30249 11.15340 11447 ft 306 kts 87°
2026-05-05 23:47 47.30405 11.18475 11444 ft 307 kts 87°
2026-05-05 23:47 47.30560 11.21613 11446 ft 307 kts 87°
2026-05-05 23:47 47.30716 11.24814 11478 ft 324 kts 87°
2026-05-05 23:48 47.30883 11.28242 11459 ft 343 kts 87°
2026-05-05 23:48 47.31054 11.31788 11436 ft 348 kts 87°
2026-05-05 23:48 47.31221 11.35295 11449 ft 346 kts 87°
2026-05-05 23:48 47.31383 11.38823 11436 ft 343 kts 87°
2026-05-05 23:49 47.31574 11.42335 11222 ft 347 kts 84°
2026-05-05 23:49 47.32051 11.45842 10813 ft 352 kts 76°
2026-05-05 23:49 47.32718 11.49303 10443 ft 351 kts 74°
2026-05-05 23:49 47.33417 11.52751 10057 ft 351 kts 74°
2026-05-05 23:50 47.34150 11.56204 9507 ft 355 kts 73°
2026-05-05 23:50 47.34911 11.59679 8863 ft 356 kts 73°
2026-05-05 23:50 47.35711 11.63126 8327 ft 358 kts 70°
2026-05-05 23:50 47.36380 11.66613 7724 ft 357 kts 85°
2026-05-05 23:51 47.36338 11.70184 7167 ft 347 kts 93°
2026-05-05 23:51 47.36593 11.73598 6584 ft 346 kts 74°
2026-05-05 23:51 47.37579 11.76759 6098 ft 337 kts 62°
2026-05-05 23:51 47.38730 11.79707 5953 ft 317 kts 57°
2026-05-05 23:52 47.40163 11.81931 5984 ft 296 kts 37°
2026-05-05 23:52 47.41816 11.83635 6032 ft 284 kts 34°
2026-05-05 23:52 47.43429 11.85246 6208 ft 276 kts 40°
2026-05-05 23:52 47.44542 11.87462 7022 ft 266 kts 70°
2026-05-05 23:53 47.44932 11.90072 7911 ft 256 kts 86°
2026-05-05 23:53 47.44560 11.92550 8500 ft 253 kts 124°
2026-05-05 23:53 47.43356 11.94509 8682 ft 268 kts 152°
2026-05-05 23:53 47.41554 11.95248 8918 ft 279 kts 186°
2026-05-05 23:54 47.39710 11.94311 9111 ft 294 kts 218°
2026-05-05 23:54 47.38367 11.92013 9182 ft 307 kts 237°
2026-05-05 23:54 47.37364 11.89318 8856 ft 286 kts 243°
2026-05-05 23:54 47.36567 11.86773 8679 ft 261 kts 244°
2026-05-05 23:55 47.35881 11.84443 8603 ft 235 kts 246°
2026-05-05 23:55 47.35332 11.82336 8482 ft 209 kts 247°
2026-05-05 23:55 47.34882 11.80464 8465 ft 193 kts 250°
2026-05-05 23:55 47.34514 11.78613 8529 ft 190 kts 252°
2026-05-05 23:56 47.34215 11.76698 8445 ft 191 kts 256°
2026-05-05 23:56 47.33863 11.74785 8040 ft 199 kts 246°
2026-05-05 23:56 47.33301 11.72904 7410 ft 200 kts 243°
2026-05-05 23:56 47.32685 11.71042 6518 ft 206 kts 240°
2026-05-05 23:57 47.32055 11.69129 5590 ft 210 kts 244°
2026-05-05 23:57 47.31470 11.67188 5095 ft 198 kts 248°
2026-05-05 23:57 47.30977 11.65391 4716 ft 184 kts 246°
2026-05-05 23:57 47.30473 11.63693 4370 ft 174 kts 247°
2026-05-05 23:58 47.30039 11.62153 4096 ft 163 kts 248°
2026-05-05 23:58 47.29650 11.60616 4050 ft 161 kts 251°
2026-05-05 23:58 47.29286 11.59066 3972 ft 159 kts 250°
2026-05-05 23:58 47.28930 11.57523 3979 ft 159 kts 251°
2026-05-05 23:59 47.28615 11.55965 4124 ft 160 kts 254°
2026-05-05 23:59 47.28340 11.54356 4142 ft 162 kts 257°
2026-05-05 23:59 47.28110 11.52744 3857 ft 159 kts 257°
2026-05-05 23:59 47.27897 11.51193 3467 ft 153 kts 259°
2026-05-06 00:00 47.27712 11.49664 3293 ft 155 kts 258°
2026-05-06 00:00 47.27528 11.48092 3141 ft 159 kts 259°
2026-05-06 00:00 47.27350 11.46484 2911 ft 158 kts 259°
2026-05-06 00:00 47.27167 11.44909 2693 ft 157 kts 259°
2026-05-06 00:01 47.26985 11.43368 2527 ft 153 kts 261°
2026-05-06 00:01 47.26819 11.41821 2496 ft 153 kts 261°
2026-05-06 00:01 47.26653 11.40277 2429 ft 155 kts 261°
2026-05-06 00:01 47.26495 11.38718 2281 ft 155 kts 261°
2026-05-06 00:02 47.26319 11.37177 2068 ft 152 kts 263°
2026-05-06 00:02 47.26157 11.35695 1926 ft 150 kts 262°
2026-05-06 00:02 47.26024 11.34421 1906 ft 98 kts 261°
2026-05-06 00:02 47.25970 11.33925 1908 ft 33 kts 261°
2026-05-06 00:03 47.25916 11.33715 1904 ft 12 kts 188°
2026-05-06 00:03 47.25852 11.33797 1900 ft 13 kts 124°
2026-05-06 00:03 47.25797 11.33908 1903 ft 14 kts 121°
2026-05-06 00:03 47.25772 11.34043 1906 ft 14 kts 89°
2026-05-06 00:04 47.25785 11.34186 1906 ft 14 kts 81°
2026-05-06 00:04 47.25800 11.34334 1906 ft 15 kts 81°
2026-05-06 00:04 47.25817 11.34487 1904 ft 15 kts 80°
2026-05-06 00:04 47.25833 11.34636 1906 ft 15 kts 81°
2026-05-06 00:05 47.25864 11.34918 1906 ft 13 kts 81°
2026-05-06 00:05 47.25877 11.35037 1902 ft 10 kts 81°
2026-05-06 00:05 47.25883 11.35111 1897 ft 7 kts 83°
2026-05-06 00:06 47.25863 11.35163 1901 ft 6 kts 168°
2026-05-06 00:06 47.25839 11.35165 1904 ft 1 kts 169°
2026-05-06 00:06 47.25831 11.35168 1898 ft 1 kts 169°
2026-05-06 00:06 47.25830 11.35168 1898 ft 0 kts 169°